Regional Weather Roundup
Issued by NWS Albany, NY

Home | Current Version | Previous Version | Text Only | Print | Product List | Glossary On
Versions: 1 2 3 4 5 6 7 8 9 10 11 12 13 14 15 16 17 18 19 20 21 22 23 24 25 26 27 28 29 30 31 32 33 34 35 36 37 38 39 40 41 42 43 44 45 46 47 48 49 50
000
ASUS41 KALY 250210
RWRALY

NEW YORK STATE HOURLY WEATHER ROUNDUP
NATIONAL WEATHER SERVICE ALBANY NY
1000 PM EDT SUN MAY 24 2015

NOTE: "FAIR" INDICATES FEW OR NO CLOUDS BELOW 12,000 FEET WITH NO
SIGNIFICANT WEATHER AND/OR NO OBSTRUCTIONS TO VISIBILITY.

NYZ032-033-038>043-046>054-057>066-NYZ062>081-250300-
EAST


CITY           SKY/WX    TMP DP  RH WIND       PRES   REMARKS
ALBANY         CLOUDY    67  45  45 CALM      30.20R
GLENS FALLS    CLOUDY    61  46  57 CALM      30.18
POUGHKEEPSIE   PTCLDY    59  49  69 NE3       30.23R
MONTGOMERY     PTCLDY    58  51  78 CALM      30.24R
WHITE PLAINS   CLOUDY    63  51  65 S6        30.26R
ISLIP          MOCLDY    61  50  67 SW9       30.28R
NEW YORK CITY  CLOUDY    69  51  52 S8        30.26R
CENTRAL PARK   CLOUDY    70  50  49 CALM      30.28R
$$

NYZ005>009-017-018-044>046-055-056-250300-
CENTRAL


CITY           SKY/WX    TMP DP  RH WIND       PRES   REMARKS
FULTON         CLOUDY    61  50  67 CALM      30.17S
SYRACUSE       MOCLDY    67  44  43 CALM      30.18R
ROME           MOCLDY    61  47  59 CALM      30.20R
ELMIRA         CLOUDY    61  51  70 CALM      30.22R
BINGHAMTON     CLOUDY    67  38  34 S5        30.24S
MONTICELLO     MOCLDY    57  43  58 CALM      30.29R
$$

NYZ026>034-041>043-250300-
NORTH


CITY           SKY/WX    TMP DP  RH WIND       PRES   REMARKS
WATERTOWN      CLOUDY    65  41  41 S5        30.14S
FORT DRUM      NOT AVBL
MASSENA        CLOUDY    68  41  37 SW12      30.11R
SARANAC LAKE   CLOUDY    60  37  42 W3        30.17R
PLATTSBURGH    CLOUDY    72  35  25 VRB7      30.10R
$$

NYZ001>004-010>016-019>021-250300-
WEST


CITY           SKY/WX    TMP DP  RH WIND       PRES   REMARKS
NIAGARA FALLS  CLOUDY    64  45  49 S9        30.16S
BUFFALO        CLOUDY    65  46  50 S5        30.17F
DUNKIRK        CLOUDY    66  53  63 CALM      30.17F
JAMESTOWN      CLOUDY    66  46  48 S3        30.23S
WELLSVILLE     CLOUDY    67  45  45 CALM      30.27S
ROCHESTER      CLOUDY    70  47  43 SW5       30.17S
PENN YAN       CLOUDY    65  51  60 S6        30.21S
$$

             KEY
       WCI = WIND CHILL INDEX
       VSB = VISIBILITY
       HX  = HEAT INDEX
$$


USA.gov is the U.S. government's official web portal to all federal, state and local government web resources and services.